Regional Weather Roundup
Issued by NWS

Home | Current Version | Previous Version | Text Only | Print | Product List | Glossary Off
Versions: 1 2 3 4 5 6 7 8 9 10 11 12 13 14 15 16 17 18 19 20 21 22 23 24 25 26 27 28 29 30 31 32 33 34 35 36 37 38 39 40 41 42 43 44 45 46 47 48 49 50

756
ASUS43 KBIS 241602
RWRND

NORTH DAKOTA REGIONAL WEATHER ROUNDUP
NATIONAL WEATHER SERVICE BISMARCK ND
1000 AM CST FRI NOV 24 2017

NOTE: "FAIR" INDICATES FEW OR NO CLOUDS BELOW 12,000 FEET WITH NO
SIGNIFICANT WEATHER AND/OR OBSTRUCTIONS TO VISIBILITY.


NDZ001>003-009>011-017-241700-
NORTHWEST NORTH DAKOTA

CITY           SKY/WX    TMP DP  RH WIND       PRES   REMARKS
WILLISTON      SUNNY     42  37  82 W14       29.65R
MINOT          SUNNY     44  36  73 W17       29.52R
MINOT AFB      SUNNY     42  36  79 NW18G24   29.51R
$$

NDZ018>021-031>035-040>046-241700-
SOUTHWEST NORTH DAKOTA

CITY           SKY/WX    TMP DP  RH WIND       PRES   REMARKS
BISMARCK       PTSUNNY   47  40  76 NW16      29.59R
DICKINSON      MOSUNNY   44  38  79 W16       29.64R
GARRISON         N/A     41  37  86 NW18      29.55R
HETTINGER ARPT MOSUNNY   44  37  76 NW18G28   29.69R
$$

NDZ004>008-012>016-024-026-027-054-241700-
NORTHEAST NORTH DAKOTA

CITY           SKY/WX    TMP DP  RH WIND       PRES   REMARKS
GRAND FORKS    CLOUDY    39  37  92 W15       29.38R
GRND FRKS AFB  CLOUDY    41  37  86 NW16G23   29.38S
DEVILS LAKE    CLOUDY    39  36  89 NW18      29.44R
$$

NDZ022-023-025-028>030-036>039-047>053-241700-
SOUTHEAST NORTH DAKOTA

CITY           SKY/WX    TMP DP  RH WIND       PRES   REMARKS
FARGO          CLOUDY    47  42  83 NW14      29.37R
JAMESTOWN      LGT RAIN  42  40  92 NW17      29.45R
$$





USA.gov is the U.S. government's official web portal to all federal, state and local government web resources and services.